This demonstration page uses our WeatherBlox Daily Observations layout. Learn more.

Left ArrowRight Arrow

Hourly Observations for May 6, 2016

Temp ( °F °C ) Dew Point ( °F °C ) Humidity (%) Winds ( mph kmh ) Pressure ( in mb ) Visibility ( mi km ) Precip ( " mm )
12:52 am 00:52 Clear 49 9.4 37 2.8 64 64 ESE 5 7 30.05 1018 10 16 0.00 0.00
1:52 am 01:52 Clear 45 7.2 37 2.8 74 74 SSE 3 6 30.05 1018 10 16 0.00 0.00
2:52 am 02:52 Clear 45 7.2 37 2.8 74 74 S 5 7 30.05 1018 10 16 0.00 0.00
3:52 am 03:52 Clear 45 7.2 37 2.8 74 74 S 3 6 30.06 1018 10 16 0.00 0.00
4:52 am 04:52 Clear 43 6.1 36 2.2 76 76 SSE 3 6 30.07 1018 10 16 0.00 0.00
5:52 am 05:52 Clear 46 7.8 37 2.8 71 71 SSE 5 7 30.07 1018 10 16 0.00 0.00
6:52 am 06:52 Sunny 44 6.7 38 3.3 79 79 SSE 3 6 30.09 1019 10 16 0.00 0.00
7:52 am 07:52 Sunny 52 11.1 42 5.6 69 69 SSE 3 6 30.10 1019 10 16 0.00 0.00
8:52 am 08:52 Sunny 61 16.1 41 5 48 48 S 6 9 30.09 1019 10 16 0.00 0.00
9:52 am 09:52 Sunny 65 18.3 37 2.8 36 36 SSW 5 7 30.10 1019 10 16 0.00 0.00
10:52 am 10:52 Sunny 70 21.1 35 1.7 28 28 Calm 30.10 1019 10 16 0.00 0.00
11:52 am 11:52 Sunny 73 22.8 38 3.3 28 28 N 5 7 30.11 1020 10 16 0.00 0.00
12:52 pm 12:52 Sunny 74 23.3 40 4.4 29 29 SSW 5 7 30.10 1019 10 16 0.00 0.00
1:52 pm 13:52 Sunny 75 23.9 41 5 29 29 Calm 30.08 1019 10 16 0.00 0.00
2:52 pm 14:52 Sunny 76 24.4 42 5.6 30 30 Calm 30.06 1018 10 16 0.00 0.00
3:52 pm 15:52 Sunny 77 25 44 6.7 31 31 Calm 30.04 1017 10 16 0.00 0.00
4:52 pm 16:52 Sunny 77 25 45 7.2 32 32 VRB 5 7 30.02 1017 10 16 0.00 0.00
5:52 pm 17:52 Sunny 77 25 46 7.8 33 33 WSW 7 11 30.00 1016 10 16 0.00 0.00
6:52 pm 18:52 Sunny 74 23.3 47 8.3 38 38 SW 3 6 29.98 1015 10 16 0.00 0.00
7:52 pm 19:52 Sunny 69 20.6 49 9.4 49 49 SW 5 7 29.97 1015 10 16 0.00 0.00
8:52 pm 20:52 Clear 62 16.7 50 10 65 65 S 5 7 29.97 1015 10 16 0.00 0.00
9:52 pm 21:52 Clear 60 15.6 47 8.3 62 62 SSW 3 6 29.97 1015 10 16 0.00 0.00
10:52 pm 22:52 Clear 58 14.4 47 8.3 67 67 S 5 7 29.98 1015 10 16 0.00 0.00
11:52 pm 23:52 Clear 57 13.9 47 8.3 69 69 SSW 6 9 29.97 1015 10 16 0.00 0.00

Powered by AerisWeather